User: anonymous   Login
Location: Flynn Junction
(40.1314°N, 99.5162°W)
Time: 11:52:07
(UTC+00:00)
Language:

Cosmos 2266 Rocket - Orbit

View from above orbital plane
View from above orbital plane
View from above satellite
View from above satellite

Ground track
Ground track

The orbit data is extracted from the following two-line orbital elements,

1 22889U 93070B   21022.83761612  .00000057  00000-0  41102-4 0  9993
2 22889  82.9437  58.9170 0050860 140.6946 219.7922 13.77942024368562
Epoch (UTC): 22 January 2021 20:06:10
Eccentricity: 0.0050860
inclination: 82.9437°
perigee height: 934 km
apogee height: 1008 km
right ascension of ascending node: 58.9170°
argument of perigee: 140.6946°
revolutions per day: 13.77942024
mean anomaly at epoch: 219.7922°
orbit number at epoch: 36856

The dashed part of the orbit path shows where the satellite is in the earth's shadow,  

DLR